AGUILA SCEL-SCEL

Flight info

Callsign AGUILA
Flight time N/A
Altitude FL350
Route RECO LITORAL SUR DESDE ZAPALLAR
Aircraft E3CF/H-S/N

Departure

Time 2026-05-07 15:53
Airport Comodoro Arturo Merino Benítez International Airport (SCEL)

Arrival

Time N/A
Airport Comodoro Arturo Merino Benítez International Airport (SCEL)
Time Latitude Longitude Altitude Speed Heading
2026-05-07 15:45 -33.37658 -70.79187 1562 ft 0 kts 182°
2026-05-07 15:45 -33.37660 -70.79187 1562 ft 2 kts 184°
2026-05-07 15:46 -33.37747 -70.79209 1562 ft 11 kts 192°
2026-05-07 15:46 -33.37831 -70.79231 1562 ft 11 kts 192°
2026-05-07 15:46 -33.37904 -70.79237 1562 ft 12 kts 180°
2026-05-07 15:47 -33.37971 -70.79209 1562 ft 11 kts 142°
2026-05-07 15:47 -33.38028 -70.79150 1562 ft 6 kts 141°
2026-05-07 15:47 -33.38057 -70.79124 1562 ft 7 kts 144°
2026-05-07 15:47 -33.38106 -70.79082 1562 ft 11 kts 144°
2026-05-07 15:48 -33.38180 -70.79020 1562 ft 15 kts 144°
2026-05-07 15:48 -33.38265 -70.78949 1562 ft 14 kts 146°
2026-05-07 15:48 -33.38308 -70.78896 1562 ft 4 kts 90°
2026-05-07 15:48 -33.38294 -70.78870 1562 ft 3 kts 23°
2026-05-07 15:49 -33.38253 -70.78864 1562 ft 9 kts
2026-05-07 15:49 -33.38180 -70.78865 1562 ft 12 kts 355°
2026-05-07 15:49 -33.38093 -70.78873 1562 ft 15 kts 355°
2026-05-07 15:49 -33.37959 -70.78884 1562 ft 19 kts 356°
2026-05-07 15:50 -33.37848 -70.78892 1562 ft 15 kts 356°
2026-05-07 15:50 -33.37749 -70.78900 1562 ft 16 kts 356°
2026-05-07 15:50 -33.37618 -70.78910 1562 ft 18 kts
2026-05-07 15:50 -33.37579 -70.78887 1562 ft 2 kts 82°
2026-05-07 15:51 -33.37579 -70.78885 1562 ft 0 kts 86°
2026-05-07 15:52 -33.37578 -70.78867 1562 ft 7 kts 86°
2026-05-07 15:52 -33.37573 -70.78783 1562 ft 11 kts 86°
2026-05-07 15:52 -33.37598 -70.78702 1562 ft 11 kts 143°
2026-05-07 15:52 -33.37719 -70.78676 1562 ft 41 kts 175°
2026-05-07 15:53 -33.38258 -70.78642 1562 ft 116 kts 177°
2026-05-07 15:53 -33.39330 -70.78584 1572 ft 189 kts 177°
2026-05-07 15:53 -33.40788 -70.78505 2026 ft 228 kts 177°
2026-05-07 15:53 -33.42501 -70.78411 2603 ft 265 kts 178°
2026-05-07 15:54 -33.44321 -70.78051 2957 ft 261 kts 159°
2026-05-07 15:54 -33.45780 -70.76851 3416 ft 257 kts 133°
2026-05-07 15:54 -33.46659 -70.74996 3869 ft 259 kts 107°
2026-05-07 15:54 -33.46777 -70.72850 4322 ft 261 kts 81°
2026-05-07 15:55 -33.46103 -70.70844 4774 ft 263 kts 56°
2026-05-07 15:55 -33.44773 -70.69361 5241 ft 264 kts 32°
2026-05-07 15:55 -33.43142 -70.68352 5715 ft 265 kts 23°
2026-05-07 15:55 -33.41451 -70.67461 6162 ft 265 kts 21°
2026-05-07 15:56 -33.39799 -70.66456 6599 ft 269 kts 27°
2026-05-07 15:56 -33.38272 -70.65135 7060 ft 274 kts 31°
2026-05-07 15:56 -33.36564 -70.64186 7512 ft 272 kts 12°
2026-05-07 15:56 -33.34696 -70.63798 7978 ft 272 kts
2026-05-07 15:57 -33.32802 -70.63746 8433 ft 273 kts 354°
2026-05-07 15:57 -33.30913 -70.63890 8884 ft 273 kts 350°
2026-05-07 15:57 -33.29226 -70.64118 9288 ft 274 kts 348°
2026-05-07 15:57 -33.27820 -70.64352 9624 ft 275 kts 347°
2026-05-07 15:58 -33.25932 -70.64704 10074 ft 276 kts 346°
2026-05-07 15:58 -33.23988 -70.65094 10545 ft 293 kts 346°
2026-05-07 15:58 -33.21916 -70.65531 11015 ft 312 kts 346°
2026-05-07 15:58 -33.19756 -70.65989 11470 ft 317 kts 346°
2026-05-07 15:59 -33.18276 -70.66301 11777 ft 320 kts 346°
2026-05-07 15:59 -33.18283 -70.66300 35000 ft 498 kts 346°
2026-05-07 16:00 -33.17155 -70.66618 35391 ft 490 kts 346°
2026-05-07 16:00 -33.13811 -70.67488 35170 ft 495 kts 346°
2026-05-07 16:00 -33.10440 -70.68241 35036 ft 490 kts 347°
2026-05-07 16:01 -33.03849 -70.69742 34990 ft 475 kts 337°
2026-05-07 16:01 -33.00896 -70.71412 34995 ft 468 kts 325°
2026-05-07 16:01 -32.98640 -70.73344 34999 ft 464 kts 317°
2026-05-07 16:02 -32.94267 -70.78894 34999 ft 459 kts 305°
2026-05-07 16:02 -32.90652 -70.85142 34998 ft 458 kts 301°
2026-05-07 16:03 -32.87297 -70.91583 34996 ft 458 kts 300°
2026-05-07 16:03 -32.84015 -70.98077 34996 ft 458 kts 299°
2026-05-07 16:04 -32.80742 -71.04562 34996 ft 458 kts 299°
2026-05-07 16:04 -32.77445 -71.11044 34996 ft 458 kts 300°
2026-05-07 16:05 -32.74128 -71.17505 34996 ft 458 kts 300°
2026-05-07 16:05 -32.70796 -71.23943 34996 ft 458 kts 300°
2026-05-07 16:06 -32.67447 -71.30374 34996 ft 458 kts 300°
2026-05-07 16:06 -32.65141 -71.34786 34996 ft 458 kts 300°
2026-05-07 16:07 -32.61778 -71.41197 34996 ft 458 kts 300°
2026-05-07 16:07 -32.58406 -71.47604 34996 ft 458 kts 300°
2026-05-07 16:08 -32.55023 -71.54016 34996 ft 458 kts 300°
2026-05-07 16:08 -32.51641 -71.60414 34996 ft 458 kts 300°
2026-05-07 16:09 -32.48258 -71.66801 34996 ft 458 kts 300°
2026-05-07 16:09 -32.45454 -71.72084 34996 ft 458 kts 300°
2026-05-07 16:10 -32.42061 -71.78470 34996 ft 458 kts 301°
2026-05-07 16:10 -32.38666 -71.84846 34996 ft 458 kts 301°
2026-05-07 16:11 -32.35266 -71.91223 34996 ft 458 kts 301°
2026-05-07 16:11 -32.32680 -71.98005 34993 ft 453 kts 278°
2026-05-07 16:11 -32.32592 -72.01703 34996 ft 451 kts 263°
2026-05-07 16:12 -32.33378 -72.05281 34997 ft 452 kts 247°
2026-05-07 16:12 -32.34656 -72.07966 34997 ft 453 kts 234°
2026-05-07 16:12 -32.36857 -72.10652 34997 ft 457 kts 219°
2026-05-07 16:13 -32.39615 -72.12533 34997 ft 463 kts 204°
2026-05-07 16:13 -32.42734 -72.13546 35001 ft 468 kts 192°
2026-05-07 16:13 -32.45979 -72.13994 35002 ft 472 kts 187°
2026-05-07 16:14 -32.52580 -72.14218 34999 ft 477 kts 184°
2026-05-07 16:14 -32.59209 -72.14466 34997 ft 477 kts 186°
2026-05-07 16:15 -32.65812 -72.15118 34997 ft 476 kts 189°
2026-05-07 16:15 -32.72358 -72.16209 34997 ft 475 kts 192°
2026-05-07 16:16 -32.78838 -72.17672 34996 ft 474 kts 195°
2026-05-07 16:16 -32.85257 -72.19422 34996 ft 473 kts 197°
2026-05-07 16:17 -32.91621 -72.21382 34996 ft 472 kts 198°
2026-05-07 16:17 -32.97941 -72.23494 34996 ft 472 kts 199°
2026-05-07 16:18 -33.04239 -72.25716 34996 ft 472 kts 200°
2026-05-07 16:18 -33.10506 -72.28012 34996 ft 472 kts 200°
2026-05-07 16:19 -33.16760 -72.30363 34996 ft 471 kts 200°
2026-05-07 16:19 -33.23005 -72.32753 34996 ft 471 kts 200°
2026-05-07 16:20 -33.29238 -72.35168 34996 ft 471 kts 201°
2026-05-07 16:20 -33.35469 -72.37605 34996 ft 471 kts 201°
2026-05-07 16:21 -33.41696 -72.40057 34996 ft 471 kts 201°
2026-05-07 16:21 -33.47914 -72.42517 34996 ft 471 kts 201°
2026-05-07 16:22 -33.54133 -72.44988 34996 ft 471 kts 201°
2026-05-07 16:22 -33.59314 -72.47051 34996 ft 471 kts 201°
2026-05-07 16:23 -33.65535 -72.49536 34996 ft 471 kts 201°
2026-05-07 16:23 -33.71748 -72.52023 34996 ft 471 kts 201°
2026-05-07 16:24 -33.77961 -72.54515 34996 ft 471 kts 201°
2026-05-07 16:24 -33.84177 -72.57013 34996 ft 471 kts 201°
2026-05-07 16:25 -33.90390 -72.59514 34996 ft 471 kts 201°
2026-05-07 16:25 -33.96603 -72.62020 34996 ft 471 kts 201°
2026-05-07 16:26 -34.02811 -72.64528 34996 ft 471 kts 201°
2026-05-07 16:26 -34.09023 -72.67041 34996 ft 471 kts 201°
2026-05-07 16:27 -34.15232 -72.69557 34996 ft 471 kts 201°
2026-05-07 16:27 -34.21443 -72.72078 34996 ft 471 kts 201°
2026-05-07 16:28 -34.27653 -72.74603 34996 ft 471 kts 201°
2026-05-07 16:28 -34.33859 -72.77130 34996 ft 471 kts 201°
2026-05-07 16:29 -34.40068 -72.79663 34996 ft 471 kts 201°
2026-05-07 16:29 -34.46273 -72.82197 34996 ft 471 kts 201°
2026-05-07 16:30 -34.52483 -72.84738 34996 ft 471 kts 201°
2026-05-07 16:30 -34.58686 -72.87279 34996 ft 471 kts 201°
2026-05-07 16:31 -34.64890 -72.89826 34996 ft 471 kts 201°
2026-05-07 16:31 -34.71098 -72.92377 34996 ft 471 kts 201°
2026-05-07 16:32 -34.77298 -72.94930 34996 ft 471 kts 201°
2026-05-07 16:32 -34.83503 -72.97489 34996 ft 471 kts 201°
2026-05-07 16:33 -34.89704 -73.00050 34996 ft 471 kts 201°
2026-05-07 16:33 -34.95906 -73.02616 34996 ft 471 kts 201°
2026-05-07 16:34 -35.02109 -73.05186 34996 ft 471 kts 201°
2026-05-07 16:34 -35.08308 -73.07759 34996 ft 471 kts 201°
2026-05-07 16:35 -35.14511 -73.10337 34996 ft 471 kts 201°
2026-05-07 16:35 -35.20705 -73.12916 34996 ft 471 kts 201°
2026-05-07 16:36 -35.26909 -73.15503 34996 ft 471 kts 201°
2026-05-07 16:36 -35.33106 -73.18092 34996 ft 471 kts 201°
2026-05-07 16:37 -35.39302 -73.20684 34996 ft 471 kts 201°
2026-05-07 16:37 -35.45500 -73.23281 34996 ft 471 kts 201°
2026-05-07 16:38 -35.51694 -73.25881 34996 ft 471 kts 201°
2026-05-07 16:38 -35.57892 -73.28487 34996 ft 471 kts 201°
2026-05-07 16:39 -35.64086 -73.31096 34996 ft 471 kts 201°
2026-05-07 16:39 -35.70279 -73.33708 34996 ft 471 kts 201°
2026-05-07 16:40 -35.76471 -73.36324 34996 ft 471 kts 201°
2026-05-07 16:40 -35.82665 -73.38946 34996 ft 471 kts 202°
2026-05-07 16:41 -35.88856 -73.41571 34996 ft 471 kts 202°
2026-05-07 16:41 -35.95049 -73.44200 34996 ft 471 kts 202°
2026-05-07 16:42 -36.01240 -73.46834 34996 ft 471 kts 202°
2026-05-07 16:42 -36.07429 -73.49471 34996 ft 471 kts 202°
2026-05-07 16:43 -36.13618 -73.52112 34996 ft 471 kts 202°
2026-05-07 16:43 -36.19807 -73.54758 34996 ft 471 kts 202°
2026-05-07 16:44 -36.25993 -73.57407 34996 ft 471 kts 202°
2026-05-07 16:44 -36.32181 -73.60061 34996 ft 471 kts 202°
2026-05-07 16:45 -36.38366 -73.62719 34996 ft 471 kts 202°
2026-05-07 16:45 -36.44552 -73.65381 34996 ft 471 kts 202°
2026-05-07 16:46 -36.50738 -73.68049 34996 ft 471 kts 202°
2026-05-07 16:46 -36.56925 -73.70721 34996 ft 471 kts 202°
2026-05-07 16:47 -36.63104 -73.73395 34996 ft 471 kts 202°
2026-05-07 16:47 -36.69289 -73.76077 34996 ft 471 kts 202°
2026-05-07 16:48 -36.75468 -73.78761 34996 ft 471 kts 202°
2026-05-07 16:48 -36.81778 -73.80999 34997 ft 474 kts 194°
2026-05-07 16:49 -36.88285 -73.82363 34997 ft 475 kts 191°
2026-05-07 16:49 -36.94848 -73.83377 34996 ft 476 kts 189°
2026-05-07 16:50 -37.01433 -73.84273 34996 ft 476 kts 189°
2026-05-07 16:50 -37.08018 -73.85137 34996 ft 476 kts 189°
2026-05-07 16:51 -37.14605 -73.86004 34996 ft 476 kts 189°
2026-05-07 16:51 -37.21195 -73.86882 34996 ft 476 kts 189°
2026-05-07 16:52 -37.27775 -73.87772 34996 ft 476 kts 189°
2026-05-07 16:52 -37.34363 -73.88675 34996 ft 476 kts 189°
2026-05-07 16:53 -37.40945 -73.89586 34996 ft 476 kts 189°
2026-05-07 16:53 -37.47519 -73.90502 34996 ft 476 kts 189°
2026-05-07 16:54 -37.54105 -73.91427 34996 ft 476 kts 189°
2026-05-07 16:54 -37.60685 -73.92355 34996 ft 476 kts 189°
2026-05-07 16:55 -37.67267 -73.93287 34996 ft 476 kts 189°
2026-05-07 16:55 -37.73845 -73.94222 34996 ft 476 kts 189°
2026-05-07 16:56 -37.80424 -73.95159 34996 ft 476 kts 189°
2026-05-07 16:56 -37.90288 -73.96569 34996 ft 476 kts 189°
2026-05-07 16:57 -37.96870 -73.97513 34996 ft 476 kts 189°
2026-05-07 16:57 -38.03444 -73.98458 34996 ft 476 kts 189°
2026-05-07 16:58 -38.10027 -73.99405 34996 ft 476 kts 189°
2026-05-07 16:58 -38.16604 -74.00354 34996 ft 476 kts 189°
2026-05-07 16:59 -38.23183 -74.01305 34996 ft 476 kts 189°
2026-05-07 16:59 -38.29758 -74.02257 34996 ft 476 kts 189°
2026-05-07 17:00 -38.36334 -74.03211 34996 ft 476 kts 189°
2026-05-07 17:00 -38.42915 -74.04168 34996 ft 476 kts 189°
2026-05-07 17:01 -38.49489 -74.05125 34996 ft 476 kts 189°
2026-05-07 17:01 -38.56070 -74.06085 34996 ft 476 kts 189°
2026-05-07 17:02 -38.62646 -74.07046 34996 ft 476 kts 189°
2026-05-07 17:02 -38.69223 -74.08009 34996 ft 476 kts 189°
2026-05-07 17:03 -38.75799 -74.08974 34996 ft 476 kts 189°
2026-05-07 17:03 -38.82375 -74.09941 34996 ft 476 kts 189°
2026-05-07 17:04 -38.88951 -74.10909 34996 ft 476 kts 189°
2026-05-07 17:04 -38.95527 -74.11879 34996 ft 476 kts 189°
2026-05-07 17:05 -39.02103 -74.12851 34996 ft 476 kts 189°
2026-05-07 17:05 -39.08681 -74.13825 34996 ft 476 kts 189°
2026-05-07 17:06 -39.15258 -74.14801 34996 ft 476 kts 189°
2026-05-07 17:06 -39.21834 -74.15779 34996 ft 476 kts 189°
2026-05-07 17:07 -39.28410 -74.16758 34996 ft 476 kts 189°
2026-05-07 17:07 -39.34984 -74.17739 34996 ft 476 kts 189°
2026-05-07 17:08 -39.41561 -74.18722 34996 ft 476 kts 189°
2026-05-07 17:08 -39.48133 -74.19706 34996 ft 476 kts 189°
2026-05-07 17:09 -39.54710 -74.20693 34996 ft 476 kts 189°
2026-05-07 17:09 -39.61284 -74.21682 34996 ft 476 kts 189°
2026-05-07 17:10 -39.67859 -74.22672 34996 ft 476 kts 189°
2026-05-07 17:10 -39.74434 -74.23664 34996 ft 476 kts 189°
2026-05-07 17:11 -39.81009 -74.24658 34996 ft 476 kts 189°
2026-05-07 17:11 -39.87576 -74.25653 34996 ft 476 kts 189°
2026-05-07 17:12 -39.94154 -74.26652 34996 ft 476 kts 189°
2026-05-07 17:12 -40.00731 -74.27652 34996 ft 476 kts 189°
2026-05-07 17:13 -40.07301 -74.28653 34996 ft 476 kts 189°
2026-05-07 17:13 -40.13878 -74.29657 34996 ft 476 kts 189°
2026-05-07 17:14 -40.20448 -74.30662 34996 ft 476 kts 189°
2026-05-07 17:14 -40.27024 -74.31670 34996 ft 476 kts 189°
2026-05-07 17:15 -40.33595 -74.32680 34996 ft 476 kts 189°
2026-05-07 17:15 -40.40169 -74.33691 34996 ft 476 kts 189°
2026-05-07 17:16 -40.46743 -74.34705 34996 ft 476 kts 189°
2026-05-07 17:16 -40.53316 -74.35720 34996 ft 476 kts 189°
2026-05-07 17:17 -40.58794 -74.36568 34996 ft 476 kts 189°
2026-05-07 17:17 -40.65364 -74.37587 34996 ft 476 kts 189°
2026-05-07 17:18 -40.71939 -74.38608 34996 ft 476 kts 189°
2026-05-07 17:18 -40.78508 -74.39631 34996 ft 476 kts 189°
2026-05-07 17:19 -40.85079 -74.40655 34996 ft 476 kts 189°
2026-05-07 17:19 -40.91654 -74.41683 34996 ft 476 kts 189°
2026-05-07 17:20 -40.98225 -74.42712 34996 ft 476 kts 189°
2026-05-07 17:20 -41.04797 -74.43743 34996 ft 476 kts 189°
2026-05-07 17:21 -41.11365 -74.44776 34996 ft 476 kts 189°
2026-05-07 17:21 -41.17937 -74.45812 34996 ft 476 kts 189°
2026-05-07 17:22 -41.24508 -74.46849 34996 ft 476 kts 189°
2026-05-07 17:22 -41.31081 -74.47889 34996 ft 476 kts 189°
2026-05-07 17:23 -41.37653 -74.48930 34996 ft 476 kts 189°
2026-05-07 17:23 -41.44224 -74.49974 34996 ft 476 kts 189°
2026-05-07 17:24 -41.50790 -74.51019 34996 ft 476 kts 189°
2026-05-07 17:24 -41.57363 -74.52067 34996 ft 476 kts 189°
2026-05-07 17:25 -41.63933 -74.53117 34996 ft 476 kts 189°
2026-05-07 17:25 -41.70505 -74.54169 34996 ft 476 kts 189°
2026-05-07 17:26 -41.77070 -74.55223 34996 ft 476 kts 189°
2026-05-07 17:26 -41.83643 -74.56280 34996 ft 476 kts 189°
2026-05-07 17:27 -41.90213 -74.57338 34996 ft 476 kts 189°
2026-05-07 17:27 -41.96781 -74.58399 34996 ft 476 kts 189°
2026-05-07 17:28 -42.03350 -74.59462 34996 ft 476 kts 189°
2026-05-07 17:28 -42.09917 -74.60526 34996 ft 476 kts 189°
2026-05-07 17:29 -42.16489 -74.61594 34996 ft 476 kts 190°
2026-05-07 17:29 -42.23056 -74.62663 34996 ft 476 kts 190°
2026-05-07 17:30 -42.29624 -74.63735 34996 ft 476 kts 190°
2026-05-07 17:30 -42.36193 -74.64809 34996 ft 476 kts 190°
2026-05-07 17:31 -42.42752 -74.65884 34996 ft 476 kts 190°
2026-05-07 17:31 -42.49333 -74.66964 34996 ft 476 kts 190°
2026-05-07 17:32 -42.55895 -74.68044 34996 ft 476 kts 190°
2026-05-07 17:32 -42.62467 -74.69128 34996 ft 476 kts 190°
2026-05-07 17:33 -42.69033 -74.70213 34996 ft 476 kts 190°
2026-05-07 17:33 -42.75599 -74.71300 34996 ft 476 kts 190°
2026-05-07 17:34 -42.82166 -74.72390 34996 ft 476 kts 190°
2026-05-07 17:34 -42.88734 -74.73482 34996 ft 476 kts 190°
2026-05-07 17:35 -42.95299 -74.74576 34996 ft 476 kts 190°
2026-05-07 17:35 -43.01869 -74.75673 34996 ft 476 kts 190°
2026-05-07 17:36 -43.08435 -74.76772 34996 ft 476 kts 190°
2026-05-07 17:36 -43.14999 -74.77874 34996 ft 476 kts 190°
2026-05-07 17:37 -43.21565 -74.78977 34996 ft 476 kts 190°
2026-05-07 17:37 -43.28131 -74.80084 34996 ft 476 kts 190°
2026-05-07 17:38 -43.34697 -74.81192 34996 ft 476 kts 190°
2026-05-07 17:38 -43.41261 -74.82303 34996 ft 476 kts 190°
2026-05-07 17:39 -43.47827 -74.83416 34996 ft 476 kts 190°
2026-05-07 17:39 -43.54394 -74.84532 34996 ft 476 kts 190°
2026-05-07 17:40 -43.60957 -74.85650 34996 ft 476 kts 190°
2026-05-07 17:40 -43.67522 -74.86770 34996 ft 476 kts 190°
2026-05-07 17:41 -43.74088 -74.87894 34996 ft 476 kts 190°
2026-05-07 17:41 -43.80656 -74.89020 34996 ft 476 kts 190°
2026-05-07 17:42 -43.87219 -74.90147 34996 ft 476 kts 190°
2026-05-07 17:42 -43.93782 -74.91278 34996 ft 476 kts 190°
2026-05-07 17:43 -44.00346 -74.92411 34996 ft 476 kts 190°
2026-05-07 17:43 -44.06912 -74.93546 34996 ft 476 kts 190°
2026-05-07 17:44 -44.13476 -74.94685 34996 ft 476 kts 190°
2026-05-07 17:44 -44.20037 -74.95825 34996 ft 476 kts 190°
2026-05-07 17:45 -44.26600 -74.96967 34996 ft 476 kts 190°
2026-05-07 17:45 -44.33165 -74.98113 34996 ft 476 kts 190°
2026-05-07 17:46 -44.39726 -74.99261 34996 ft 476 kts 190°
2026-05-07 17:46 -44.46293 -75.00412 34996 ft 476 kts 190°
2026-05-07 17:47 -44.52856 -75.01566 34996 ft 476 kts 190°
2026-05-07 17:47 -44.59415 -75.02721 34996 ft 476 kts 190°
2026-05-07 17:48 -44.65980 -75.03880 34996 ft 476 kts 190°
2026-05-07 17:48 -44.72541 -75.05041 34996 ft 476 kts 190°
2026-05-07 17:49 -44.79101 -75.06204 34996 ft 476 kts 190°
2026-05-07 17:49 -44.85664 -75.07370 34996 ft 476 kts 190°
2026-05-07 17:50 -44.92224 -75.08539 34996 ft 476 kts 190°
2026-05-07 17:50 -44.98789 -75.09711 34996 ft 476 kts 190°
2026-05-07 17:51 -45.05348 -75.10885 34996 ft 476 kts 190°
2026-05-07 17:51 -45.11910 -75.12062 34996 ft 476 kts 190°
2026-05-07 17:52 -45.18472 -75.13242 34996 ft 475 kts 190°
2026-05-07 17:52 -45.25029 -75.14424 34996 ft 475 kts 190°
2026-05-07 17:53 -45.31590 -75.15609 34996 ft 475 kts 190°
2026-05-07 17:53 -45.38153 -75.16797 34996 ft 475 kts 190°
2026-05-07 17:54 -45.44712 -75.17988 34996 ft 475 kts 190°
2026-05-07 17:54 -45.51267 -75.19180 34996 ft 475 kts 190°
2026-05-07 17:55 -45.57828 -75.20376 34996 ft 475 kts 190°
2026-05-07 17:55 -45.64389 -75.21576 34996 ft 475 kts 190°
2026-05-07 17:56 -45.70948 -75.22777 34996 ft 475 kts 190°
2026-05-07 17:56 -45.77507 -75.23982 34996 ft 475 kts 190°
2026-05-07 17:57 -45.82970 -75.24987 34996 ft 475 kts 190°
2026-05-07 17:57 -45.90625 -75.26400 34996 ft 475 kts 190°
2026-05-07 17:58 -45.97179 -75.27612 34996 ft 475 kts 190°
2026-05-07 17:58 -46.03737 -75.28828 34996 ft 475 kts 190°
2026-05-07 17:59 -46.10295 -75.30046 34996 ft 475 kts 190°
2026-05-07 17:59 -46.16855 -75.31268 34996 ft 475 kts 190°
2026-05-07 18:00 -46.23410 -75.32492 34996 ft 475 kts 190°
2026-05-07 18:00 -46.29969 -75.33720 34996 ft 475 kts 190°
2026-05-07 18:01 -46.36524 -75.34950 34996 ft 475 kts 190°
2026-05-07 18:01 -46.43082 -75.36184 34996 ft 475 kts 190°
2026-05-07 18:02 -46.52916 -75.38039 34996 ft 475 kts 190°
2026-05-07 18:03 -46.59476 -75.39280 34996 ft 475 kts 190°
2026-05-07 18:03 -46.66031 -75.40524 34996 ft 475 kts 190°
2026-05-07 18:04 -46.72588 -75.41771 34996 ft 475 kts 190°
2026-05-07 18:04 -46.79141 -75.43020 34996 ft 475 kts 190°
2026-05-07 18:05 -46.85696 -75.44273 34996 ft 475 kts 190°
2026-05-07 18:05 -46.92254 -75.45529 34996 ft 475 kts 190°
2026-05-07 18:06 -46.98806 -75.46787 34996 ft 475 kts 190°
2026-05-07 18:06 -47.05365 -75.48050 34996 ft 475 kts 190°
2026-05-07 18:07 -47.11915 -75.49314 34996 ft 475 kts 190°
2026-05-07 18:07 -47.18471 -75.50583 34996 ft 475 kts 190°
2026-05-07 18:08 -47.25027 -75.51854 34996 ft 475 kts 190°
2026-05-07 18:08 -47.31580 -75.53128 34996 ft 475 kts 190°
2026-05-07 18:09 -47.38134 -75.54406 34996 ft 475 kts 190°
2026-05-07 18:09 -47.44683 -75.55686 34996 ft 475 kts 190°
2026-05-07 18:10 -47.51240 -75.56971 34996 ft 475 kts 190°
2026-05-07 18:10 -47.57787 -75.58257 34996 ft 475 kts 190°
2026-05-07 18:11 -47.64344 -75.59548 34996 ft 475 kts 190°
2026-05-07 18:11 -47.70897 -75.60841 34996 ft 475 kts 190°
2026-05-07 18:12 -47.77449 -75.62138 34996 ft 475 kts 191°
2026-05-07 18:12 -47.84000 -75.63438 34996 ft 475 kts 191°
2026-05-07 18:13 -47.89467 -75.64525 34996 ft 475 kts 191°
2026-05-07 18:13 -47.96012 -75.65830 34996 ft 475 kts 191°
2026-05-07 18:14 -48.02563 -75.67139 34996 ft 475 kts 191°
2026-05-07 18:14 -48.09115 -75.68452 34996 ft 475 kts 191°
2026-05-07 18:15 -48.15664 -75.69767 34996 ft 475 kts 191°
2026-05-07 18:15 -48.22214 -75.71087 34996 ft 475 kts 191°
2026-05-07 18:16 -48.28765 -75.72410 34996 ft 475 kts 191°
2026-05-07 18:16 -48.35321 -75.73737 34996 ft 475 kts 191°
2026-05-07 18:17 -48.41871 -75.75066 34996 ft 475 kts 191°
2026-05-07 18:17 -48.48418 -75.76398 34996 ft 475 kts 191°
2026-05-07 18:18 -48.54964 -75.77734 34996 ft 475 kts 191°
2026-05-07 18:18 -48.61514 -75.79074 34996 ft 475 kts 191°
2026-05-07 18:19 -48.68064 -75.80417 34996 ft 475 kts 191°
2026-05-07 18:19 -48.74615 -75.81764 34996 ft 475 kts 191°
2026-05-07 18:20 -48.81165 -75.83115 34996 ft 475 kts 191°
2026-05-07 18:20 -48.87709 -75.84468 34996 ft 475 kts 191°
2026-05-07 18:21 -48.94262 -75.85826 34996 ft 475 kts 191°
2026-05-07 18:21 -49.00806 -75.87186 34996 ft 475 kts 191°
2026-05-07 18:22 -49.07354 -75.88551 34996 ft 475 kts 191°
2026-05-07 18:22 -49.13907 -75.89920 34996 ft 475 kts 191°
2026-05-07 18:23 -49.20450 -75.91291 34996 ft 475 kts 191°
2026-05-07 18:23 -49.26998 -75.92667 34996 ft 475 kts 191°
2026-05-07 18:24 -49.33543 -75.94045 34996 ft 475 kts 191°
2026-05-07 18:24 -49.40093 -75.95429 34996 ft 475 kts 191°
2026-05-07 18:25 -49.46640 -75.96815 34996 ft 475 kts 191°
2026-05-07 18:25 -49.53181 -75.98204 34996 ft 475 kts 191°
2026-05-07 18:26 -49.59731 -75.99599 34996 ft 475 kts 191°
2026-05-07 18:26 -49.66273 -76.00996 34996 ft 475 kts 191°
2026-05-07 18:27 -49.72820 -76.02398 34996 ft 475 kts 191°
2026-05-07 18:27 -49.79363 -76.03803 34996 ft 475 kts 191°
2026-05-07 18:28 -49.85908 -76.05212 34996 ft 475 kts 191°
2026-05-07 18:28 -49.92455 -76.06626 34996 ft 475 kts 191°
2026-05-07 18:29 -49.98999 -76.08043 34996 ft 475 kts 191°
2026-05-07 18:29 -50.05540 -76.09482 34995 ft 474 kts 193°
2026-05-07 18:29 -50.08667 -76.10931 34992 ft 467 kts 207°
2026-05-07 18:30 -50.11395 -76.13588 34996 ft 461 kts 223°
2026-05-07 18:30 -50.13530 -76.17249 34997 ft 456 kts 238°
2026-05-07 18:30 -50.14925 -76.21635 34997 ft 452 kts 253°
2026-05-07 18:30 -50.15528 -76.26427 35001 ft 451 kts 265°
2026-05-07 18:31 -50.15598 -76.31312 35002 ft 452 kts 271°
2026-05-07 18:31 -50.15134 -76.41096 34998 ft 453 kts 275°
2026-05-07 18:32 -50.14612 -76.50892 34996 ft 454 kts 274°
2026-05-07 18:32 -50.14349 -76.60711 34996 ft 454 kts 271°
2026-05-07 18:33 -50.14376 -76.70547 34996 ft 454 kts 269°
2026-05-07 18:33 -50.14639 -76.80379 34996 ft 454 kts 267°
2026-05-07 18:34 -50.15065 -76.90201 34996 ft 454 kts 266°
2026-05-07 18:34 -50.15594 -77.00009 34996 ft 454 kts 265°
2026-05-07 18:35 -50.16183 -77.09808 34996 ft 454 kts 265°
2026-05-07 18:35 -50.16801 -77.19614 34996 ft 454 kts 264°
2026-05-07 18:36 -50.17431 -77.29407 34996 ft 454 kts 264°
2026-05-07 18:36 -50.18061 -77.39208 34996 ft 454 kts 264°
2026-05-07 18:37 -50.18684 -77.49014 34996 ft 454 kts 264°
2026-05-07 18:37 -50.18338 -77.58753 34993 ft 454 kts 288°
2026-05-07 18:37 -50.16960 -77.63171 34997 ft 456 kts 303°
2026-05-07 18:38 -50.14843 -77.66861 34997 ft 460 kts 318°
2026-05-07 18:38 -50.12141 -77.69536 34997 ft 465 kts 333°
2026-05-07 18:38 -50.09035 -77.71005 34997 ft 471 kts 348°
2026-05-07 18:38 -50.05748 -77.71142 34997 ft 478 kts
2026-05-07 18:39 -50.02489 -77.70017 35001 ft 483 kts 15°
2026-05-07 18:39 -49.96284 -77.65890 35000 ft 488 kts 24°
2026-05-07 18:40 -49.90245 -77.61053 34997 ft 489 kts 24°
2026-05-07 18:40 -49.84125 -77.56462 34996 ft 488 kts 21°
2026-05-07 18:41 -49.77870 -77.52385 34996 ft 487 kts 18°
2026-05-07 18:41 -49.71500 -77.48830 34996 ft 486 kts 15°
2026-05-07 18:42 -49.65054 -77.45723 34996 ft 485 kts 13°
2026-05-07 18:42 -49.58548 -77.42965 34996 ft 485 kts 12°
2026-05-07 18:43 -49.52006 -77.40473 34996 ft 484 kts 10°
2026-05-07 18:43 -49.45442 -77.38179 34996 ft 484 kts
2026-05-07 18:44 -49.38865 -77.36030 34996 ft 484 kts
2026-05-07 18:44 -49.32276 -77.33985 34996 ft 483 kts
2026-05-07 18:45 -49.25676 -77.32015 34996 ft 483 kts
2026-05-07 18:45 -49.19075 -77.30102 34996 ft 483 kts
2026-05-07 18:46 -49.12470 -77.28229 34996 ft 483 kts
2026-05-07 18:46 -49.05864 -77.26385 34996 ft 483 kts
2026-05-07 18:47 -48.99255 -77.24564 34996 ft 483 kts
2026-05-07 18:47 -48.92644 -77.22760 34996 ft 483 kts
2026-05-07 18:48 -48.86034 -77.20970 34996 ft 483 kts
2026-05-07 18:48 -48.79419 -77.19190 34996 ft 483 kts
2026-05-07 18:49 -48.72806 -77.17419 34996 ft 483 kts
2026-05-07 18:49 -48.66192 -77.15656 34996 ft 483 kts
2026-05-07 18:50 -48.59583 -77.13901 34996 ft 483 kts
2026-05-07 18:50 -48.52969 -77.12150 34996 ft 483 kts
2026-05-07 18:51 -48.46354 -77.10405 34996 ft 483 kts
2026-05-07 18:51 -48.39738 -77.08666 34996 ft 483 kts
2026-05-07 18:52 -48.33126 -77.06932 34996 ft 483 kts
2026-05-07 18:52 -48.26511 -77.05202 34996 ft 483 kts
2026-05-07 18:53 -48.19896 -77.03478 34996 ft 483 kts
2026-05-07 18:53 -48.13284 -77.01758 34996 ft 483 kts
2026-05-07 18:54 -48.06665 -77.00042 34996 ft 483 kts
2026-05-07 18:54 -48.00049 -76.98331 34996 ft 483 kts
2026-05-07 18:55 -47.93437 -76.96625 34996 ft 483 kts
2026-05-07 18:55 -47.86822 -76.94923 34996 ft 483 kts
2026-05-07 18:56 -47.80204 -76.93225 34996 ft 483 kts
2026-05-07 18:56 -47.73589 -76.91532 34996 ft 483 kts
2026-05-07 18:57 -47.66971 -76.89842 34996 ft 483 kts
2026-05-07 18:57 -47.60356 -76.88158 34996 ft 483 kts
2026-05-07 18:58 -47.53742 -76.86478 34996 ft 483 kts
2026-05-07 18:58 -47.47124 -76.84802 34996 ft 483 kts
2026-05-07 18:59 -47.40507 -76.83130 34996 ft 483 kts
2026-05-07 18:59 -47.33894 -76.81463 34996 ft 483 kts
2026-05-07 19:00 -47.27277 -76.79800 34996 ft 483 kts
2026-05-07 19:00 -47.20658 -76.78140 34996 ft 483 kts
2026-05-07 19:01 -47.14042 -76.76485 34996 ft 483 kts
2026-05-07 19:01 -47.07424 -76.74834 34996 ft 483 kts
2026-05-07 19:02 -47.00805 -76.73187 34996 ft 483 kts
2026-05-07 19:02 -46.94187 -76.71544 34996 ft 483 kts
2026-05-07 19:03 -46.87568 -76.69905 34996 ft 483 kts
2026-05-07 19:03 -46.80951 -76.68271 34996 ft 483 kts
2026-05-07 19:04 -46.74336 -76.66641 34996 ft 483 kts
2026-05-07 19:04 -46.67718 -76.65015 34996 ft 483 kts
2026-05-07 19:05 -46.61096 -76.63391 34996 ft 483 kts
2026-05-07 19:05 -46.54480 -76.61773 34996 ft 483 kts
2026-05-07 19:06 -46.47860 -76.60159 34996 ft 483 kts
2026-05-07 19:06 -46.37933 -76.57744 34996 ft 483 kts
2026-05-07 19:07 -46.31312 -76.56139 34996 ft 483 kts
2026-05-07 19:07 -46.24693 -76.54538 34996 ft 483 kts
2026-05-07 19:08 -46.18075 -76.52941 34996 ft 483 kts
2026-05-07 19:08 -46.11457 -76.51349 34996 ft 483 kts
2026-05-07 19:09 -46.05941 -76.50024 34996 ft 483 kts
2026-05-07 19:09 -45.99321 -76.48438 34996 ft 483 kts
2026-05-07 19:10 -45.92700 -76.46855 34996 ft 483 kts
2026-05-07 19:10 -45.86080 -76.45277 34996 ft 482 kts
2026-05-07 19:11 -45.79462 -76.43702 34996 ft 482 kts
2026-05-07 19:11 -45.72840 -76.42131 34996 ft 482 kts
2026-05-07 19:12 -45.66223 -76.40565 34996 ft 482 kts
2026-05-07 19:12 -45.59599 -76.39000 34996 ft 482 kts
2026-05-07 19:13 -45.52977 -76.37440 34996 ft 482 kts
2026-05-07 19:13 -45.46360 -76.35885 34996 ft 482 kts
2026-05-07 19:14 -45.39736 -76.34332 34996 ft 482 kts
2026-05-07 19:14 -45.33119 -76.32784 34996 ft 482 kts
2026-05-07 19:15 -45.26494 -76.31238 34996 ft 482 kts
2026-05-07 19:15 -45.19874 -76.29697 34996 ft 482 kts
2026-05-07 19:16 -45.13255 -76.28159 34996 ft 482 kts
2026-05-07 19:16 -45.06634 -76.26625 34996 ft 482 kts
2026-05-07 19:17 -45.00010 -76.25094 34996 ft 482 kts
2026-05-07 19:17 -44.93390 -76.23567 34996 ft 482 kts
2026-05-07 19:18 -44.86771 -76.22044 34996 ft 482 kts
2026-05-07 19:18 -44.80148 -76.20524 34996 ft 482 kts
2026-05-07 19:19 -44.73524 -76.19006 34996 ft 482 kts
2026-05-07 19:19 -44.66903 -76.17494 34996 ft 482 kts
2026-05-07 19:20 -44.60282 -76.15984 34996 ft 482 kts
2026-05-07 19:20 -44.53657 -76.14477 34996 ft 482 kts
2026-05-07 19:21 -44.47035 -76.12975 34996 ft 482 kts
2026-05-07 19:21 -44.40413 -76.11475 34996 ft 482 kts
2026-05-07 19:22 -44.33791 -76.09979 34996 ft 482 kts
2026-05-07 19:22 -44.27168 -76.08487 34996 ft 482 kts
2026-05-07 19:23 -44.20546 -76.06998 34996 ft 482 kts
2026-05-07 19:23 -44.13924 -76.05512 34996 ft 482 kts
2026-05-07 19:24 -44.07300 -76.04030 34996 ft 482 kts
2026-05-07 19:24 -44.00677 -76.02551 34996 ft 482 kts
2026-05-07 19:25 -43.94054 -76.01075 34996 ft 482 kts
2026-05-07 19:25 -43.87430 -75.99602 34996 ft 482 kts
2026-05-07 19:26 -43.80808 -75.98133 34996 ft 482 kts
2026-05-07 19:26 -43.74184 -75.96667 34996 ft 482 kts
2026-05-07 19:27 -43.67560 -75.95205 34996 ft 482 kts
2026-05-07 19:27 -43.60938 -75.93746 34996 ft 482 kts
2026-05-07 19:28 -43.54314 -75.92290 34996 ft 482 kts
2026-05-07 19:28 -43.47687 -75.90836 34996 ft 482 kts
2026-05-07 19:29 -43.41065 -75.89386 34996 ft 482 kts
2026-05-07 19:29 -43.34441 -75.87940 34996 ft 482 kts
2026-05-07 19:30 -43.27817 -75.86497 34996 ft 482 kts
2026-05-07 19:30 -43.21192 -75.85056 34996 ft 482 kts
2026-05-07 19:31 -43.14568 -75.83619 34996 ft 482 kts
2026-05-07 19:31 -43.07946 -75.82186 34996 ft 482 kts
2026-05-07 19:32 -43.01320 -75.80755 34996 ft 482 kts
2026-05-07 19:32 -42.94694 -75.79327 34996 ft 482 kts
2026-05-07 19:33 -42.88071 -75.77902 34996 ft 482 kts
2026-05-07 19:33 -42.81447 -75.76481 34996 ft 482 kts
2026-05-07 19:34 -42.74821 -75.75062 34996 ft 482 kts
2026-05-07 19:34 -42.68195 -75.73646 34996 ft 482 kts
2026-05-07 19:35 -42.61571 -75.72234 34996 ft 482 kts
2026-05-07 19:35 -42.54945 -75.70824 34996 ft 482 kts
2026-05-07 19:36 -42.48321 -75.69418 34996 ft 482 kts
2026-05-07 19:36 -42.41693 -75.68014 34996 ft 482 kts
2026-05-07 19:37 -42.35068 -75.66614 34996 ft 482 kts
2026-05-07 19:37 -42.28443 -75.65217 34996 ft 482 kts
2026-05-07 19:38 -42.21816 -75.63822 34996 ft 482 kts
2026-05-07 19:38 -42.15188 -75.62430 34996 ft 482 kts
2026-05-07 19:39 -42.08565 -75.61042 34996 ft 482 kts
2026-05-07 19:39 -42.01940 -75.59656 34996 ft 482 kts
2026-05-07 19:40 -41.95310 -75.58272 34996 ft 482 kts
2026-05-07 19:40 -41.88687 -75.56893 34996 ft 482 kts
2026-05-07 19:41 -41.82060 -75.55516 34996 ft 482 kts
2026-05-07 19:41 -41.75434 -75.54142 34996 ft 482 kts
2026-05-07 19:42 -41.68812 -75.52771 34996 ft 482 kts
2026-05-07 19:42 -41.62177 -75.51401 34996 ft 482 kts
2026-05-07 19:43 -41.55556 -75.50036 34996 ft 482 kts
2026-05-07 19:43 -41.48937 -75.48675 34996 ft 482 kts
2026-05-07 19:44 -41.42298 -75.47312 34996 ft 482 kts
2026-05-07 19:44 -41.35677 -75.45956 34996 ft 482 kts
2026-05-07 19:45 -41.29043 -75.44600 34996 ft 482 kts
2026-05-07 19:45 -41.22418 -75.43249 34996 ft 482 kts
2026-05-07 19:46 -41.15789 -75.41899 34996 ft 482 kts
2026-05-07 19:46 -41.09166 -75.40554 34996 ft 482 kts
2026-05-07 19:47 -41.02536 -75.39210 34996 ft 482 kts
2026-05-07 19:47 -40.96191 -75.37926 34996 ft 482 kts
2026-05-07 19:48 -40.90338 -75.36744 34996 ft 482 kts
2026-05-07 19:48 -40.83713 -75.35409 34996 ft 482 kts
2026-05-07 19:49 -40.77086 -75.34075 34996 ft 482 kts
2026-05-07 19:49 -40.70455 -75.32744 34996 ft 482 kts
2026-05-07 19:50 -40.63828 -75.31416 34996 ft 482 kts
2026-05-07 19:50 -40.57198 -75.30091 34996 ft 482 kts
2026-05-07 19:51 -40.50570 -75.28768 34996 ft 482 kts
2026-05-07 19:51 -40.43965 -75.27453 34996 ft 482 kts
2026-05-07 19:52 -40.37316 -75.26131 34996 ft 482 kts
2026-05-07 19:52 -40.30689 -75.24817 34996 ft 482 kts
2026-05-07 19:53 -40.24055 -75.23504 34996 ft 482 kts
2026-05-07 19:53 -40.17432 -75.22195 34996 ft 482 kts
2026-05-07 19:54 -40.10799 -75.20887 34996 ft 482 kts
2026-05-07 19:54 -40.04171 -75.19583 34996 ft 482 kts
2026-05-07 19:55 -39.97544 -75.18281 34996 ft 482 kts
2026-05-07 19:55 -39.90914 -75.16982 34996 ft 482 kts
2026-05-07 19:56 -39.84286 -75.15685 34996 ft 482 kts
2026-05-07 19:56 -39.77656 -75.14391 34996 ft 482 kts
2026-05-07 19:57 -39.71029 -75.13099 34996 ft 482 kts
2026-05-07 19:57 -39.64398 -75.11809 34996 ft 482 kts
2026-05-07 19:58 -39.57769 -75.10522 34996 ft 482 kts
2026-05-07 19:58 -39.51138 -75.09238 34996 ft 482 kts
2026-05-07 19:59 -39.44511 -75.07956 34996 ft 482 kts
2026-05-07 19:59 -39.37880 -75.06676 34996 ft 482 kts
2026-05-07 20:00 -39.31251 -75.05399 34996 ft 482 kts
2026-05-07 20:00 -39.24623 -75.04125 34996 ft 482 kts
2026-05-07 20:01 -39.17994 -75.02853 34996 ft 482 kts
2026-05-07 20:01 -39.11364 -75.01583 34996 ft 482 kts
2026-05-07 20:02 -39.04734 -75.00315 34996 ft 482 kts
2026-05-07 20:02 -38.98101 -74.99050 34996 ft 482 kts
2026-05-07 20:03 -38.91475 -74.97788 34996 ft 482 kts
2026-05-07 20:03 -38.84844 -74.96527 34996 ft 482 kts
2026-05-07 20:04 -38.78215 -74.95269 34996 ft 482 kts
2026-05-07 20:04 -38.71584 -74.94014 34996 ft 482 kts
2026-05-07 20:05 -38.64955 -74.92761 34996 ft 482 kts
2026-05-07 20:05 -38.58323 -74.91509 34996 ft 482 kts
2026-05-07 20:06 -38.51691 -74.90260 34996 ft 482 kts
2026-05-07 20:06 -38.45064 -74.89014 34996 ft 482 kts
2026-05-07 20:07 -38.38428 -74.87769 34996 ft 482 kts
2026-05-07 20:07 -38.31814 -74.86386 34996 ft 484 kts
2026-05-07 20:08 -38.25306 -74.84154 34997 ft 486 kts 14°
2026-05-07 20:08 -38.18886 -74.81473 34996 ft 486 kts 16°
2026-05-07 20:09 -38.12500 -74.78629 34996 ft 487 kts 17°
2026-05-07 20:10 -38.02940 -74.74291 34996 ft 487 kts 17°
2026-05-07 20:10 -37.96567 -74.71404 34996 ft 487 kts 17°
2026-05-07 20:11 -37.90187 -74.68530 34996 ft 487 kts 17°
2026-05-07 20:11 -37.83807 -74.65675 34996 ft 487 kts 17°
2026-05-07 20:12 -37.77428 -74.62835 34996 ft 487 kts 17°
2026-05-07 20:12 -37.71040 -74.60004 34996 ft 487 kts 16°
2026-05-07 20:13 -37.64655 -74.57186 34996 ft 487 kts 16°
2026-05-07 20:13 -37.58266 -74.54376 34996 ft 486 kts 16°
2026-05-07 20:14 -37.51875 -74.51573 34996 ft 486 kts 16°
2026-05-07 20:14 -37.45486 -74.48778 34996 ft 486 kts 16°
2026-05-07 20:15 -37.39092 -74.45987 34996 ft 486 kts 16°
2026-05-07 20:15 -37.32700 -74.43203 34996 ft 486 kts 16°
2026-05-07 20:16 -37.26307 -74.40425 34996 ft 486 kts 16°
2026-05-07 20:16 -37.19915 -74.37652 34996 ft 486 kts 16°
2026-05-07 20:17 -37.13523 -74.34885 34996 ft 486 kts 16°
2026-05-07 20:17 -37.07127 -74.32121 34996 ft 486 kts 16°
2026-05-07 20:18 -37.00731 -74.29362 34996 ft 486 kts 16°
2026-05-07 20:18 -36.94334 -74.26608 34996 ft 486 kts 16°
2026-05-07 20:19 -36.87939 -74.23860 34996 ft 486 kts 16°
2026-05-07 20:19 -36.81542 -74.21116 34996 ft 486 kts 16°
2026-05-07 20:20 -36.75145 -74.18376 34996 ft 486 kts 16°
2026-05-07 20:20 -36.68746 -74.15641 34996 ft 486 kts 16°
2026-05-07 20:21 -36.62347 -74.12910 34996 ft 486 kts 16°
2026-05-07 20:21 -36.55950 -74.10186 34996 ft 486 kts 16°
2026-05-07 20:22 -36.49709 -74.07532 34996 ft 486 kts 16°
2026-05-07 20:22 -36.43261 -74.04795 34996 ft 486 kts 16°
2026-05-07 20:23 -36.36852 -74.02079 34996 ft 486 kts 16°
2026-05-07 20:23 -36.30453 -73.99372 34996 ft 486 kts 16°
2026-05-07 20:24 -36.25230 -73.97166 34996 ft 486 kts 16°
2026-05-07 20:24 -36.17908 -73.94079 34996 ft 486 kts 16°
2026-05-07 20:25 -36.12572 -73.91833 34996 ft 486 kts 16°
2026-05-07 20:25 -36.06169 -73.89142 34996 ft 486 kts 16°
2026-05-07 20:26 -35.99763 -73.86455 34996 ft 486 kts 16°
2026-05-07 20:26 -35.93356 -73.83772 34996 ft 486 kts 16°
2026-05-07 20:27 -35.86955 -73.81096 34996 ft 486 kts 16°
2026-05-07 20:27 -35.80547 -73.78421 34996 ft 486 kts 16°
2026-05-07 20:28 -35.74142 -73.75752 34996 ft 486 kts 16°
2026-05-07 20:28 -35.67738 -73.73089 34996 ft 486 kts 16°
2026-05-07 20:29 -35.61328 -73.70427 34996 ft 486 kts 16°
2026-05-07 20:29 -35.54922 -73.67771 34996 ft 486 kts 16°
2026-05-07 20:30 -35.48515 -73.65120 34996 ft 486 kts 15°
2026-05-07 20:30 -35.42108 -73.62473 34996 ft 486 kts 15°
2026-05-07 20:31 -35.35701 -73.59830 34996 ft 486 kts 15°
2026-05-07 20:31 -35.29291 -73.57191 34996 ft 486 kts 15°
2026-05-07 20:32 -35.22882 -73.54557 34996 ft 486 kts 15°
2026-05-07 20:32 -35.16475 -73.51928 34996 ft 486 kts 15°
2026-05-07 20:33 -35.10062 -73.49300 34996 ft 486 kts 15°
2026-05-07 20:33 -35.03655 -73.46680 34996 ft 486 kts 15°
2026-05-07 20:34 -34.97232 -73.44057 34869 ft 489 kts 15°
2026-05-07 20:34 -34.94008 -73.42743 34567 ft 489 kts 15°
2026-05-07 20:34 -34.90802 -73.41436 34240 ft 479 kts 15°
2026-05-07 20:34 -34.87709 -73.40170 33906 ft 461 kts 15°
2026-05-07 20:35 -34.84720 -73.38945 33571 ft 447 kts 15°
2026-05-07 20:35 -34.81800 -73.37750 33237 ft 438 kts 15°
2026-05-07 20:35 -34.78937 -73.36582 32905 ft 431 kts 15°
2026-05-07 20:35 -34.76112 -73.35432 32573 ft 426 kts 15°
2026-05-07 20:36 -34.73316 -73.34296 32242 ft 422 kts 15°
2026-05-07 20:36 -34.70545 -73.33173 31911 ft 418 kts 15°
2026-05-07 20:36 -34.67797 -73.32061 31581 ft 415 kts 15°
2026-05-07 20:36 -34.65065 -73.30957 31250 ft 412 kts 15°
2026-05-07 20:37 -34.62351 -73.29861 30919 ft 410 kts 15°
2026-05-07 20:37 -34.59656 -73.28774 30589 ft 407 kts 15°
2026-05-07 20:37 -34.56975 -73.27693 30259 ft 405 kts 15°
2026-05-07 20:37 -34.54310 -73.26619 29929 ft 403 kts 15°
2026-05-07 20:38 -34.51661 -73.25552 29599 ft 400 kts 15°
2026-05-07 20:38 -34.49024 -73.24490 29268 ft 398 kts 15°
2026-05-07 20:38 -34.46405 -73.23436 28938 ft 396 kts 15°
2026-05-07 20:38 -34.43800 -73.22388 28608 ft 394 kts 15°
2026-05-07 20:39 -34.41209 -73.21346 28278 ft 392 kts 15°
2026-05-07 20:39 -34.38631 -73.20311 27948 ft 389 kts 15°
2026-05-07 20:39 -34.36067 -73.19281 27618 ft 387 kts 15°
2026-05-07 20:39 -34.33516 -73.18257 27287 ft 385 kts 15°
2026-05-07 20:40 -34.30983 -73.17241 26958 ft 383 kts 14°
2026-05-07 20:40 -34.28462 -73.16230 26628 ft 381 kts 14°
2026-05-07 20:40 -34.25952 -73.15224 26297 ft 379 kts 14°
2026-05-07 20:40 -34.23458 -73.14226 25967 ft 377 kts 14°
2026-05-07 20:41 -34.20976 -73.13233 25637 ft 375 kts 14°
2026-05-07 20:41 -34.18504 -73.12244 25307 ft 373 kts 14°
2026-05-07 20:41 -34.16050 -73.11263 24977 ft 371 kts 14°
2026-05-07 20:41 -34.13605 -73.10286 24646 ft 369 kts 14°
2026-05-07 20:42 -34.11172 -73.09315 24316 ft 367 kts 14°
2026-05-07 20:42 -34.08754 -73.08350 23986 ft 365 kts 14°
2026-05-07 20:42 -34.06349 -73.07391 23656 ft 363 kts 14°
2026-05-07 20:42 -34.03957 -73.06437 23326 ft 361 kts 14°
2026-05-07 20:43 -34.01576 -73.05489 22995 ft 360 kts 14°
2026-05-07 20:43 -33.99210 -73.04547 22665 ft 358 kts 14°
2026-05-07 20:43 -33.96855 -73.03610 22335 ft 356 kts 14°
2026-05-07 20:43 -33.94508 -73.02677 22005 ft 354 kts 14°
2026-05-07 20:44 -33.92601 -73.01919 21735 ft 353 kts 14°
2026-05-07 20:44 -33.90281 -73.00998 21405 ft 351 kts 14°
2026-05-07 20:44 -33.87969 -73.00080 21075 ft 349 kts 14°
2026-05-07 20:44 -33.85673 -72.99169 20745 ft 347 kts 14°
2026-05-07 20:45 -33.83384 -72.98261 20414 ft 345 kts 14°
2026-05-07 20:45 -33.81111 -72.97360 20084 ft 344 kts 14°
2026-05-07 20:45 -33.78845 -72.96463 19754 ft 342 kts 14°
2026-05-07 20:45 -33.76595 -72.95572 19424 ft 340 kts 14°
2026-05-07 20:46 -33.74354 -72.94685 19094 ft 338 kts 14°
2026-05-07 20:46 -33.72125 -72.93804 18764 ft 337 kts 14°
2026-05-07 20:46 -33.69910 -72.92928 18434 ft 335 kts 14°
2026-05-07 20:46 -33.67705 -72.92058 18104 ft 333 kts 14°
2026-05-07 20:47 -33.65509 -72.91191 17773 ft 331 kts 14°
2026-05-07 20:47 -33.63326 -72.90329 17443 ft 330 kts 14°
2026-05-07 20:47 -33.61154 -72.89473 17113 ft 328 kts 14°
2026-05-07 20:47 -33.58994 -72.88621 16783 ft 326 kts 14°
2026-05-07 20:48 -33.56841 -72.87773 16452 ft 325 kts 14°
2026-05-07 20:48 -33.54707 -72.86933 16184 ft 321 kts 14°
2026-05-07 20:48 -33.52599 -72.86102 16058 ft 318 kts 14°
2026-05-07 20:48 -33.50503 -72.85277 16003 ft 317 kts 14°
2026-05-07 20:49 -33.48411 -72.84455 15997 ft 317 kts 14°
2026-05-07 20:49 -33.46317 -72.83634 15996 ft 317 kts 14°
2026-05-07 20:49 -33.44221 -72.82812 15996 ft 317 kts 14°
2026-05-07 20:49 -33.42123 -72.81989 15996 ft 318 kts 14°
2026-05-07 20:50 -33.40022 -72.81166 15996 ft 318 kts 14°
2026-05-07 20:50 -33.37923 -72.80343 15996 ft 318 kts 14°
2026-05-07 20:50 -33.35821 -72.79520 15996 ft 318 kts 14°
2026-05-07 20:50 -33.33722 -72.78698 15996 ft 318 kts 14°
2026-05-07 20:51 -33.31620 -72.77875 15999 ft 318 kts 14°
2026-05-07 20:51 -33.29522 -72.77053 16000 ft 318 kts 14°
2026-05-07 20:51 -33.27421 -72.76231 16000 ft 318 kts 14°
2026-05-07 20:51 -33.25318 -72.75409 16000 ft 318 kts 14°
2026-05-07 20:52 -33.23219 -72.74588 16000 ft 318 kts 14°
2026-05-07 20:52 -33.21118 -72.73767 16000 ft 318 kts 14°
2026-05-07 20:52 -33.19040 -72.72858 15990 ft 321 kts 22°
2026-05-07 20:52 -33.17247 -72.71242 15998 ft 329 kts 43°
2026-05-07 20:53 -33.15868 -72.69041 16008 ft 333 kts 56°
2026-05-07 20:53 -33.14788 -72.66591 16005 ft 334 kts 63°
2026-05-07 20:53 -33.13892 -72.64036 16002 ft 335 kts 67°